[[{"header":{"parameterUnit":"m.s-1","parameterCategory":2,"la1":30.2992,"la2":30.254,"lo1":-89.0895,"lo2":-89.0443,"dy":0.0025,"dx":0.0025,"nx":19,"ny":19,"refTime":"2026-05-14T09:00:00:Z","depth":"0","parameterNumber":2,"parameterNumberName":"U-component_of_CURRENTS"},"data":[0,0,0,0.3399,0.3399,0.3378,0.3378,0.3602,0.3605,0,0,0,0,0,0,0,0,0,0,0,0.3396,0.3396,0.3399,0.3399,0.3378,0.3378,0.3602,0.3605,0,0,0,0,0,0,0,0,0,0,0,0.3396,0.3396,0.3396,0.3399,0.3378,0.3378,0.3601,0.3553,0,0,0,0,0,0,0,0,0,0,0.3541,0.3508,0.3396,0.3396,0.3399,0.3378,0.3378,0.3547,0.3556,0.3686,0,0.3674,0,0.3662,0.3627,0.3628,0,0,0,0.3391,0.35,0.3497,0.3396,0.3399,0.3378,0.3385,0.355,0.356,0.3699,0.3677,0.3684,0.3665,0.3629,0.3631,0.39,0.39,0,0,0.3392,0.3401,0.3489,0.3502,0.339,0.3386,0.3385,0.3553,0.3569,0.3677,0.3688,0.3669,0.3631,0.3634,0.3899,0.39,0,0,0,0.3401,0.3402,0.3388,0.3495,0.348,0.3386,0.3384,0.356,0.3555,0.369,0.3672,0.3633,0.3637,0.3899,0.3899,0.3812,0,0,0,0.3401,0.3408,0.3389,0.3395,0.3475,0.3488,0.3388,0.3542,0.356,0.3671,0.3633,0.364,0.3898,0.3899,0.3813,0.3804,0,0,0,0.3398,0.3408,0.3402,0.3396,0.3391,0.3483,0.3485,0.3543,0.3553,0.3628,0.3641,0.3898,0.3899,0.3814,0.3806,0.3777,0,0,0,0.3413,0.3401,0.3402,0.34,0.3391,0.3421,0.3483,0.3522,0.3579,0.3635,0.3898,0.3899,0.3814,0.3807,0.3778,0.3609,0.3589,0,0,0.3405,0.3401,0.3401,0.3401,0.3418,0.3423,0.3473,0.3566,0.3652,0.3859,0.3863,0.3813,0.3806,0.3777,0.3683,0.3661,0,0,0,0.3403,0.3387,0.34,0.3405,0.3441,0.3475,0.3543,0.3593,0.3714,0.3694,0.3864,0.3864,0.3847,0.375,0.3733,0.3621,0.3905,0.3905,0.3905,0.3361,0.3379,0.3379,0.3407,0.3447,0.3522,0.3564,0.3659,0.3737,0.3776,0.3828,0.3803,0.3699,0.3685,0.3572,0.3856,0.3856,0.3856,0.3855,0.3321,0.3304,0.3348,0.3352,0.3424,0.3478,0.3616,0.3657,0.3766,0.3817,0.3803,0.3708,0.366,0.3547,0.3851,0.3851,0.3852,0.3853,0.3853,0.3266,0.326,0.3268,0.3284,0.333,0.3433,0.3489,0.3612,0.371,0.3718,0.3618,0.3618,0.3486,0.3694,0.3694,0.3694,0.3694,0.3694,0.3693,0.3203,0.3211,0.3185,0.3209,0.3215,0.3276,0.3422,0.3479,0.3519,0.3547,0.3545,0.3464,0.3755,0.3725,0.3691,0.3691,0.3692,0.3692,0.3692,0.312,0.3126,0.3074,0.3065,0.3075,0.3021,0.3199,0.322,0.3298,0.3266,0.32,0.3453,0.347,0.3483,0.3449,0.3346,0.3346,0.3346,0.3346,0.306,0.3062,0.2959,0.2908,0.2889,0.2902,0.2781,0.2841,0.2921,0.291,0.2998,0.2961,0.298,0.2971,0.2995,0.2953,0.2727,0.2726,0.2725,0.301,0.2979,0.2869,0.281,0.2779,0.2714,0.2495,0.2394,0.2552,0.2697,0.2875,0.2901,0.2852,0.2892,0.2887,0.293,0.2867,0,0]},{"header":{"parameterUnit":"m.s-1","parameterCategory":2,"la1":30.2992,"la2":30.254,"lo1":-89.0895,"lo2":-89.0443,"dy":0.0025,"dx":0.0025,"nx":19,"ny":19,"refTime":"2026-05-14T09:00:00:Z","depth":"0","parameterNumber":3,"parameterNumberName":"V-component_of_CURRENTS"},"data":[0,0,0,0.0259,0.026,0.0286,0.0286,0.0266,0.0266,0,0,0,0,0,0,0,0,0,0,0,0.0248,0.0248,0.0259,0.026,0.0286,0.0286,0.0266,0.0266,0,0,0,0,0,0,0,0,0,0,0,0.0248,0.0248,0.0249,0.026,0.0286,0.0286,0.0266,0.0256,0,0,0,0,0,0,0,0,0,0,0.0236,0.0234,0.0248,0.0249,0.0261,0.0286,0.0286,0.0256,0.0257,0.0244,0,0.026,0,0.027,0.0265,0.0265,0,0,0,0.0245,0.0233,0.0249,0.0249,0.0261,0.0286,0.027,0.0257,0.0258,0.0245,0.026,0.026,0.0269,0.0265,0.0265,0.0404,0.0406,0,0,0.0244,0.024,0.0249,0.025,0.0283,0.027,0.0271,0.0258,0.0258,0.026,0.026,0.0269,0.0265,0.0265,0.0402,0.0404,0,0,0,0.025,0.0239,0.0255,0.025,0.0264,0.0271,0.0273,0.0259,0.0268,0.026,0.0269,0.0265,0.0265,0.0401,0.0403,0.049,0,0,0,0.0248,0.0244,0.0255,0.0251,0.0265,0.0268,0.0274,0.0268,0.0267,0.0269,0.0265,0.0264,0.0399,0.0402,0.0483,0.0542,0,0,0,0.0244,0.0243,0.0253,0.0251,0.0271,0.0269,0.0276,0.0268,0.0273,0.0265,0.0264,0.0398,0.0401,0.0478,0.0532,0.0596,0,0,0,0.0228,0.0267,0.0253,0.0302,0.0271,0.0339,0.0276,0.0312,0.0315,0.0265,0.0399,0.0403,0.0476,0.0526,0.059,0.0622,0.0652,0,0,0.0273,0.0272,0.0305,0.0293,0.0374,0.0333,0.0423,0.0393,0.0373,0.0392,0.0395,0.0486,0.0531,0.0594,0.0849,0.0872,0,0,0,0.0317,0.0344,0.0366,0.0407,0.0438,0.0488,0.0466,0.0482,0.0524,0.0397,0.0542,0.057,0.0605,0.0615,0.0634,0.0553,0.0421,0.0421,0.042,0.0366,0.0395,0.0467,0.0513,0.0556,0.06,0.065,0.0677,0.0615,0.0679,0.0681,0.0848,0.0863,0.0877,0.0795,0.0717,0.0717,0.0718,0.0718,0.0455,0.0507,0.055,0.0628,0.0682,0.0753,0.0831,0.0825,0.091,0.0841,0.0869,0.0758,0.0903,0.0807,0.0724,0.0723,0.0722,0.0722,0.0721,0.0492,0.0527,0.0572,0.069,0.0798,0.086,0.1013,0.1031,0.1016,0.1061,0.1041,0.1039,0.0917,0.1056,0.1057,0.1057,0.1058,0.1058,0.1058,0.0513,0.0567,0.0652,0.0765,0.0854,0.0994,0.1125,0.1199,0.1219,0.1176,0.1175,0.0996,0.0951,0.0893,0.1067,0.1066,0.1065,0.1064,0.1063,0.0577,0.0594,0.0724,0.0813,0.1022,0.1198,0.1298,0.1423,0.1446,0.1455,0.1211,0.1231,0.1205,0.1189,0.1139,0.1366,0.1366,0.1366,0.1366,0.0611,0.0631,0.0805,0.0956,0.1148,0.13,0.1528,0.16,0.1477,0.1373,0.129,0.1201,0.1192,0.1159,0.1143,0.1089,0.1299,0.1298,0.1298,0.0664,0.0711,0.084,0.0988,0.1205,0.142,0.1629,0.1723,0.1487,0.1284,0.1178,0.1181,0.1032,0.1024,0.0949,0.0934,0.0836,0,0]}],[{"header":{"parameterUnit":"m.s-1","parameterCategory":2,"la1":30.2992,"la2":30.254,"lo1":-89.0895,"lo2":-89.0443,"dy":0.0025,"dx":0.0025,"nx":19,"ny":19,"refTime":"2026-05-14T09:00:00:Z","depth":"2","parameterNumber":2,"parameterNumberName":"U-component_of_CURRENTS"},"data":[0,0,0,0.2348,0.2349,0.2428,0.2428,0.2742,0.2745,0,0,0,0,0,0,0,0,0,0,0,0.2348,0.2348,0.2348,0.2349,0.2428,0.2428,0.2741,0.2745,0,0,0,0,0,0,0,0,0,0,0,0.2347,0.2348,0.2349,0.2349,0.2428,0.2428,0.274,0.2634,0,0,0,0,0,0,0,0,0,0,0.2533,0.2482,0.2348,0.2349,0.2349,0.2427,0.2428,0.2627,0.2641,0.2758,0,0.2772,0,0.2749,0.2768,0.2769,0,0,0,0.2374,0.247,0.2495,0.2349,0.2349,0.2427,0.2399,0.2633,0.2649,0.2778,0.2775,0.2785,0.2755,0.277,0.2772,0.308,0.3081,0,0,0.237,0.2367,0.2483,0.2505,0.2378,0.2396,0.2401,0.2641,0.2665,0.2776,0.2791,0.276,0.2773,0.2775,0.3079,0.308,0,0,0,0.234,0.2364,0.2379,0.2495,0.2483,0.2398,0.2404,0.2654,0.266,0.2794,0.2763,0.2775,0.2779,0.3079,0.308,0.2965,0,0,0,0.2339,0.2344,0.2377,0.2376,0.2477,0.2536,0.2412,0.2644,0.2668,0.2762,0.2775,0.2783,0.3078,0.3079,0.2967,0.2963,0,0,0,0.2343,0.2344,0.2355,0.2376,0.2395,0.253,0.2549,0.2648,0.2651,0.277,0.2783,0.3077,0.3079,0.2968,0.2964,0.2974,0,0,0,0.2335,0.2345,0.2355,0.2375,0.2394,0.2454,0.2547,0.2626,0.2721,0.2777,0.3078,0.308,0.2968,0.2965,0.2975,0.2837,0.2823,0,0,0.2335,0.2345,0.2357,0.2367,0.2402,0.2445,0.2514,0.2677,0.2796,0.3017,0.3023,0.2966,0.2965,0.2974,0.294,0.2921,0,0,0,0.2349,0.2354,0.2373,0.2396,0.2446,0.2502,0.2609,0.2674,0.2848,0.2854,0.3035,0.3041,0.3048,0.2969,0.2956,0.3088,0.3088,0.3088,0.3087,0.2317,0.2345,0.2368,0.2407,0.2463,0.2561,0.263,0.276,0.285,0.2904,0.2994,0.2998,0.2913,0.2902,0.3029,0.3028,0.3028,0.3027,0.3027,0.229,0.2296,0.2358,0.2393,0.2473,0.2554,0.2684,0.274,0.2893,0.2945,0.2956,0.2913,0.288,0.302,0.3021,0.3022,0.3023,0.3023,0.3024,0.2239,0.2249,0.2287,0.2347,0.2443,0.2547,0.2636,0.2757,0.2842,0.288,0.2856,0.2856,0.2922,0.2895,0.2895,0.2895,0.2895,0.2895,0.2895,0.2173,0.2212,0.2227,0.2305,0.2348,0.2444,0.2617,0.2668,0.2737,0.2782,0.2781,0.2956,0.2961,0.2921,0.2896,0.2896,0.2896,0.2896,0.2896,0.2099,0.2131,0.214,0.2167,0.225,0.2252,0.2434,0.25,0.2589,0.2573,0.2723,0.2727,0.2769,0.2779,0.2739,0.2669,0.2669,0.2669,0.2669,0.2038,0.2057,0.2058,0.2066,0.2091,0.2158,0.2115,0.2183,0.2341,0.2394,0.2406,0.2358,0.2373,0.2393,0.2412,0.2366,0.2198,0.2197,0.2197,0.1979,0.2002,0.1962,0.1992,0.2007,0.2009,0.1908,0.1814,0.1916,0.2179,0.2337,0.2634,0.2596,0.2607,0.2669,0.2687,0.2625,0,0]},{"header":{"parameterUnit":"m.s-1","parameterCategory":2,"la1":30.2992,"la2":30.254,"lo1":-89.0895,"lo2":-89.0443,"dy":0.0025,"dx":0.0025,"nx":19,"ny":19,"refTime":"2026-05-14T09:00:00:Z","depth":"2","parameterNumber":3,"parameterNumberName":"V-component_of_CURRENTS"},"data":[0,0,0,0.0344,0.0344,0.0345,0.0345,0.0328,0.0328,0,0,0,0,0,0,0,0,0,0,0,0.0342,0.0342,0.0344,0.0344,0.0345,0.0345,0.0328,0.0328,0,0,0,0,0,0,0,0,0,0,0,0.0342,0.0342,0.0342,0.0344,0.0345,0.0345,0.0328,0.033,0,0,0,0,0,0,0,0,0,0,0.0331,0.0331,0.0342,0.0342,0.0344,0.0345,0.0345,0.033,0.033,0.0325,0,0.0331,0,0.0333,0.0327,0.0327,0,0,0,0.0336,0.0331,0.0337,0.0342,0.0344,0.0345,0.0342,0.033,0.033,0.0325,0.033,0.033,0.0333,0.0327,0.0327,0.0419,0.0421,0,0,0.0336,0.0335,0.0337,0.0337,0.0351,0.0343,0.0343,0.033,0.0329,0.033,0.033,0.0333,0.0327,0.0327,0.0418,0.042,0,0,0,0.0341,0.0335,0.0341,0.0337,0.0341,0.0343,0.0343,0.0329,0.0333,0.033,0.0332,0.0327,0.0327,0.0417,0.0419,0.0469,0,0,0,0.0341,0.0339,0.0341,0.0339,0.0342,0.0337,0.0342,0.0334,0.0333,0.0332,0.0327,0.0327,0.0416,0.0418,0.0465,0.0513,0,0,0,0.0341,0.0338,0.0342,0.0339,0.0344,0.0338,0.034,0.0334,0.0335,0.0327,0.0327,0.0415,0.0418,0.0461,0.0507,0.055,0,0,0,0.0334,0.0357,0.0342,0.037,0.0344,0.0384,0.034,0.0359,0.036,0.0327,0.0416,0.0419,0.046,0.0503,0.0546,0.055,0.0569,0,0,0.0363,0.036,0.0379,0.0367,0.0418,0.0383,0.0438,0.0414,0.04,0.0414,0.0416,0.0466,0.0506,0.0549,0.0702,0.0715,0,0,0,0.039,0.0408,0.042,0.0444,0.0458,0.0489,0.0465,0.0465,0.0487,0.0414,0.0506,0.0531,0.0555,0.0551,0.0563,0.0431,0.0431,0.0431,0.043,0.0431,0.0447,0.0496,0.0522,0.0548,0.0565,0.0587,0.0592,0.0548,0.0581,0.0599,0.071,0.0708,0.0717,0.0618,0.0618,0.0618,0.0618,0.0618,0.0502,0.054,0.0566,0.0619,0.0647,0.0695,0.0716,0.0698,0.0738,0.0691,0.071,0.064,0.0732,0.0623,0.0622,0.0622,0.0621,0.0621,0.0621,0.054,0.0564,0.0594,0.0678,0.0756,0.0786,0.0883,0.0866,0.0819,0.0843,0.083,0.0829,0.0725,0.0847,0.0847,0.0848,0.0848,0.0848,0.0849,0.0567,0.0603,0.0667,0.0749,0.0817,0.0916,0.0985,0.1004,0.0975,0.0921,0.092,0.0787,0.078,0.0741,0.0855,0.0854,0.0853,0.0853,0.0852,0.0619,0.063,0.0732,0.0799,0.096,0.1089,0.1135,0.1163,0.1146,0.1121,0.0954,0.095,0.0937,0.0927,0.0893,0.104,0.104,0.104,0.104,0.0646,0.0662,0.0798,0.0919,0.1066,0.1175,0.1302,0.1281,0.117,0.1075,0.1073,0.1012,0.1004,0.099,0.0979,0.0944,0.1104,0.1105,0.1105,0.0685,0.0724,0.0824,0.0945,0.1118,0.1267,0.1379,0.1332,0.1132,0.1106,0.1076,0.1046,0.0947,0.0938,0.0905,0.0891,0.083,0,0]}],[{"header":{"parameterUnit":"m.s-1","parameterCategory":2,"la1":30.2992,"la2":30.254,"lo1":-89.0895,"lo2":-89.0443,"dy":0.0025,"dx":0.0025,"nx":19,"ny":19,"refTime":"2026-05-14T09:00:00:Z","depth":"4","parameterNumber":2,"parameterNumberName":"U-component_of_CURRENTS"},"data":[0,0,0,0.137,0.1373,0.1489,0.1489,0.1305,0.1302,0,0,0,0,0,0,0,0,0,0,0,0.133,0.1331,0.1369,0.1373,0.1488,0.1489,0.1305,0.1302,0,0,0,0,0,0,0,0,0,0,0,0.1329,0.133,0.1332,0.1373,0.1488,0.1489,0.1306,0.1297,0,0,0,0,0,0,0,0,0,0,0.1225,0.1254,0.133,0.1332,0.1374,0.1488,0.1489,0.13,0.1298,0.1162,0,0.1203,0,0.1246,0.1284,0.1283,0,0,0,0.1358,0.1258,0.1277,0.1332,0.1375,0.1488,0.1432,0.1302,0.1298,0.1157,0.1202,0.1197,0.1243,0.1282,0.1281,0.1251,0.1253,0,0,0.1352,0.1347,0.1281,0.1276,0.1427,0.1429,0.1436,0.1303,0.1306,0.1201,0.1194,0.124,0.128,0.1278,0.1249,0.1251,0,0,0,0.1343,0.1342,0.1372,0.1281,0.1328,0.1432,0.1441,0.1313,0.1321,0.1193,0.1238,0.1279,0.1275,0.1247,0.125,0.138,0,0,0,0.1339,0.1338,0.137,0.1367,0.1333,0.1371,0.1453,0.1331,0.1319,0.1239,0.1278,0.1272,0.1245,0.1249,0.1373,0.1375,0,0,0,0.132,0.1336,0.1356,0.1366,0.1423,0.1376,0.1379,0.1331,0.1343,0.1283,0.1272,0.1244,0.1248,0.1366,0.1365,0.1404,0,0,0,0.13,0.1325,0.1357,0.1397,0.1423,0.1465,0.1381,0.1421,0.1391,0.1277,0.1246,0.125,0.1364,0.136,0.1399,0.1157,0,0,0,0.1309,0.1327,0.1348,0.1379,0.1423,0.1447,0.1503,0.145,0.1401,0.1256,0.1259,0.1375,0.1365,0.1403,0.1406,0,0,0,0,0.1335,0.1351,0.1371,0.1415,0.1451,0.1505,0.1497,0.1517,0.1525,0.1406,0.1424,0.1413,0.1432,0.128,0.127,0.1269,0.1269,0.1268,0.1268,0.1323,0.1353,0.1385,0.1429,0.1468,0.1552,0.1604,0.1628,0.1567,0.1656,0.1558,0.1722,0.1575,0.1629,0.163,0.1631,0.1631,0.1632,0.1632,0.1316,0.1328,0.1392,0.1439,0.151,0.157,0.1662,0.1715,0.1774,0.1739,0.1753,0.1478,0.1646,0.1643,0.1641,0.164,0.1638,0.1638,0.1637,0.1281,0.1288,0.1348,0.1424,0.1519,0.1612,0.1696,0.1786,0.1851,0.1897,0.1711,0.179,0.173,0.192,0.1921,0.1921,0.1921,0.1921,0.1922,0.1213,0.1264,0.1312,0.1409,0.1472,0.1579,0.1729,0.1778,0.1867,0.1801,0.1927,0.1817,0.1807,0.1746,0.1926,0.1925,0.1924,0.1924,0.1924,0.1148,0.1196,0.1243,0.1304,0.1422,0.1476,0.1641,0.1695,0.1741,0.1728,0.1738,0.1746,0.1652,0.1646,0.1574,0.1709,0.1707,0.1704,0,0.1102,0.1127,0.1182,0.1231,0.1281,0.1398,0.1411,0.1501,0.1583,0.153,0.1745,0.1754,0.1759,0.1648,0.1639,0.1553,0,0,0,0.1066,0.1091,0.1102,0.1162,0.1201,0.1268,0.1404,0.1389,0.1569,0.1552,0.1641,0.1658,0.1815,0.1938,0.181,0.1799,0.1693,0,0]},{"header":{"parameterUnit":"m.s-1","parameterCategory":2,"la1":30.2992,"la2":30.254,"lo1":-89.0895,"lo2":-89.0443,"dy":0.0025,"dx":0.0025,"nx":19,"ny":19,"refTime":"2026-05-14T09:00:00:Z","depth":"4","parameterNumber":3,"parameterNumberName":"V-component_of_CURRENTS"},"data":[0,0,0,0.0258,0.0258,0.0267,0.0267,0.0258,0.0258,0,0,0,0,0,0,0,0,0,0,0,0.0255,0.0256,0.0258,0.0258,0.0267,0.0267,0.0258,0.0258,0,0,0,0,0,0,0,0,0,0,0,0.0255,0.0256,0.0256,0.0258,0.0267,0.0267,0.0258,0.0255,0,0,0,0,0,0,0,0,0,0,0.0249,0.0251,0.0256,0.0256,0.0258,0.0267,0.0267,0.0255,0.0255,0.0249,0,0.0254,0,0.0256,0.0257,0.0257,0,0,0,0.0255,0.0251,0.0254,0.0256,0.0258,0.0267,0.0262,0.0256,0.0256,0.0249,0.0254,0.0254,0.0256,0.0257,0.0257,0.0245,0.0244,0,0,0.0254,0.0255,0.0254,0.0254,0.0265,0.0262,0.0262,0.0256,0.0257,0.0254,0.0254,0.0256,0.0257,0.0257,0.0245,0.0245,0,0,0,0.0255,0.0255,0.0258,0.0254,0.0258,0.0262,0.0263,0.0257,0.0259,0.0254,0.0256,0.0257,0.0256,0.0245,0.0245,0.0313,0,0,0,0.0255,0.0255,0.0258,0.0258,0.0258,0.026,0.0264,0.0259,0.0259,0.0256,0.0257,0.0256,0.0245,0.0245,0.0311,0.0352,0,0,0,0.0254,0.0255,0.0258,0.0258,0.0263,0.0261,0.0262,0.0259,0.026,0.0257,0.0256,0.0245,0.0245,0.031,0.0349,0.0364,0,0,0,0.0252,0.0265,0.0258,0.0275,0.0263,0.0281,0.0262,0.0274,0.0275,0.0256,0.0245,0.0245,0.0309,0.0347,0.0362,0.0372,0,0,0,0.0268,0.0267,0.0278,0.0272,0.0302,0.0279,0.0304,0.0297,0.0267,0.0245,0.0245,0.0312,0.0348,0.0364,0.0364,0,0,0,0,0.0284,0.0296,0.0302,0.0318,0.0322,0.0338,0.0323,0.031,0.0298,0.0267,0.029,0.0311,0.0319,0.0317,0.0244,0.0244,0.0244,0.0244,0.0244,0.0311,0.032,0.035,0.0366,0.0377,0.0377,0.038,0.0355,0.0326,0.0324,0.035,0.0388,0.0387,0.0324,0.0324,0.0325,0.0325,0.0325,0.0325,0.0353,0.0376,0.0395,0.0429,0.0442,0.0466,0.0447,0.043,0.0419,0.0385,0.0388,0.0369,0.0331,0.033,0.0329,0.0328,0.0328,0.0328,0.0327,0.0376,0.039,0.0417,0.0475,0.0526,0.0537,0.0579,0.0544,0.0489,0.0498,0.0477,0.0428,0.0441,0.0498,0.0499,0.0499,0.0499,0.0499,0.05,0.0388,0.0416,0.0467,0.0527,0.0581,0.0642,0.0661,0.0651,0.0594,0.0558,0.0522,0.0446,0.044,0.0449,0.0503,0.0503,0.0502,0.0502,0.0502,0.0413,0.0431,0.0508,0.0564,0.0682,0.0726,0.0749,0.0717,0.0702,0.0656,0.0573,0.0568,0.0543,0.0535,0.0547,0.0632,0.0632,0.0633,0,0.0429,0.0442,0.0549,0.0643,0.0735,0.0775,0.0791,0.0773,0.0687,0.0677,0.0676,0.0583,0.0579,0.055,0.0543,0.0557,0,0,0,0.0451,0.0483,0.0558,0.0653,0.076,0.078,0.0795,0.0776,0.0705,0.0691,0.0642,0.0639,0.0582,0.0515,0.0466,0.0459,0.047,0,0]}]]